Location: São Paulo
(23.5507°S, 46.6334°W)
Time: 05:06:04
(UTC-03:00)

Vanguard 1 Rocket - All Passes

Search period start: 17 February 2026 00:00
Search period end: 27 February 2026 00:00
Orbit: 652 x 4215 km, 34.3° (Epoch: 15 February)

Date Brightness Start Highest point End Pass type
(mag) Time Alt. Az. Time Alt. Az. Time Alt. Az.
17 Feb - 02:19:25 10° W 02:34:56 52° SSW 02:42:53 10° ESE visible
17 Feb - 04:54:12 10° WSW 05:02:36 39° S 05:07:40 10° ESE visible
17 Feb - 07:22:47 10° WSW 07:28:13 66° NNW 07:32:34 10° NE daylight
17 Feb - 19:59:16 10° N 20:18:50 27° NE 20:34:52 10° E visible
17 Feb - 22:26:13 10° NW 22:50:57 65° NNE 23:05:30 10° ESE visible
18 Feb - 01:00:53 10° WNW 01:20:57 68° SSW 01:30:59 10° ESE visible
18 Feb - 03:37:56 10° WSW 03:49:22 41° S 03:55:39 10° ESE visible
18 Feb - 06:09:12 10° WSW 06:16:09 64° SSE 06:20:44 10° ENE daylight
18 Feb - 08:37:35 10° WNW 08:40:31 16° NW 08:43:22 10° N daylight
18 Feb - 18:49:11 10° N 19:02:22 16° NE 19:14:47 10° ENE visible
18 Feb - 21:10:56 10° NNW 21:35:09 48° NE 21:51:53 10° ESE visible
18 Feb - 23:42:40 10° WNW 00:06:21 86° SSW 00:18:50 10° ESE visible
19 Feb - 02:20:04 10° W 02:35:40 49° SSW 02:43:42 10° ESE visible
19 Feb - 04:54:37 10° WSW 05:03:31 46° S 05:08:43 10° E visible
19 Feb - 07:23:29 10° WSW 07:28:46 42° NW 07:32:55 10° NE daylight
19 Feb - 19:57:16 10° NNW 20:18:59 34° NE 20:36:42 10° E visible
19 Feb - 22:25:31 10° NW 22:51:03 75° NNE 23:06:11 10° ESE visible
20 Feb - 01:01:16 10° W 01:21:27 62° SSW 01:31:42 10° ESE visible
20 Feb - 03:38:29 10° WSW 03:50:17 44° S 03:56:40 10° ESE visible
20 Feb - 06:09:34 10° WSW 06:16:52 89° SSE 06:21:32 10° ENE daylight
20 Feb - 18:45:47 10° N 19:02:42 22° NE 19:18:37 10° E visible
20 Feb - 21:09:49 10° NW 21:35:09 58° NE 21:52:44 10° ESE visible
20 Feb - 23:42:39 10° WNW 00:06:38 78° SSW 00:19:27 10° ESE visible
21 Feb - 02:20:42 10° W 02:36:28 48° S 02:44:36 10° ESE visible
21 Feb - 04:54:56 10° WSW 05:04:23 57° SSE 05:09:44 10° E visible
21 Feb - 07:24:24 10° W 07:29:10 27° NW 07:32:58 10° NNE daylight
21 Feb - 17:41:11 10° NNE 17:46:17 11° NE 17:51:28 10° NE daylight
21 Feb - 19:55:43 10° NNW 20:18:56 42° NE 20:38:01 10° ESE visible
21 Feb - 22:25:05 10° NW 22:51:08 85° NNE 23:06:47 10° ESE visible
22 Feb - 01:01:48 10° W 01:22:02 58° SSW 01:32:27 10° ESE visible
22 Feb - 03:38:56 10° WSW 03:51:12 48° S 03:57:43 10° E visible
22 Feb - 06:10:01 10° WSW 06:17:27 65° NNW 06:22:08 10° NE daylight
22 Feb - 18:43:27 10° N 19:02:45 28° NE 19:21:05 10° E visible
22 Feb - 21:09:01 10° NW 21:35:04 67° NE 21:53:25 10° ESE visible
22 Feb - 23:42:51 10° WNW 00:06:58 71° SSW 00:20:05 10° ESE visible
23 Feb - 02:21:17 10° WSW 02:37:19 49° S 02:45:34 10° ESE visible
23 Feb - 04:55:11 10° WSW 05:05:10 73° SSE 05:10:37 10° ENE visible
23 Feb - 07:25:45 10° W 07:29:28 17° NW 07:32:33 10° N daylight
23 Feb - 17:34:27 10° NNE 17:46:40 16° NE 17:59:23 10° ENE daylight
23 Feb - 19:54:32 10° NNW 20:18:44 50° NE 20:38:59 10° ESE visible
23 Feb - 22:24:54 10° WNW 22:51:14 86° SSW 23:07:20 10° ESE visible
24 Feb - 01:02:23 10° W 01:22:43 55° SSW 01:33:16 10° ESE visible
24 Feb - 03:39:14 10° WSW 03:52:05 56° SSE 03:58:44 10° E visible
24 Feb - 06:10:34 10° WSW 06:17:52 45° NW 06:22:32 10° NE daylight
24 Feb - 18:41:46 10° NNW 19:02:32 35° NE 19:22:47 10° E visible
24 Feb - 21:08:28 10° NW 21:34:57 76° NNE 21:53:59 10° ESE visible
24 Feb - 23:43:13 10° W 00:07:24 65° SSW 00:20:46 10° ESE visible
25 Feb - 02:21:46 10° WSW 02:38:12 52° S 02:46:34 10° ESE visible
25 Feb - 04:55:27 10° WSW 05:05:48 87° NNW 05:11:23 10° ENE visible
25 Feb - 07:28:27 10° WNW 07:29:39 11° NW 07:30:46 10° NW daylight
25 Feb - 17:31:16 10° N 17:46:41 21° NE 18:03:16 10° E daylight
25 Feb - 19:53:40 10° NW 20:18:27 59° NE 20:39:42 10° ESE visible
25 Feb - 22:24:57 10° WNW 22:51:24 79° SSW 23:07:53 10° ESE visible
26 Feb - 01:02:58 10° W 01:23:29 54° S 01:34:10 10° ESE visible
26 Feb - 03:39:27 10° WSW 03:52:54 66° SSE 03:59:41 10° E visible
26 Feb - 06:11:18 10° WSW 06:18:08 31° NW 06:22:39 10° NNE daylight
26 Feb - 18:40:30 10° NNW 19:02:11 43° NE 19:23:57 10° ESE visible
26 Feb - 21:08:11 10° NW 21:34:51 85° NNE 21:54:29 10° ESE visible
